| time (UTC) | temp F | wind direction | speed MPH | gust MPH | rain 1hr in | rain 24hr in | rain mn in | humidity % | barometer mb |
| 20260508231110 | 68 | 23 | 0.0 | 1.0 | 0.00 | 0.00 | 0.00 | 79 | 1024.4 |
| 20260508230607 | 68 | 83 | 1.0 | 2.0 | 0.00 | 0.00 | 0.00 | 77 | 1024.6 |
| 20260508225601 | 69 | 90 | 0.0 | 1.0 | 0.00 | 0.00 | 0.00 | 76 | 1024.3 |
| 20260508225057 | 69 | 114 | 1.0 | 2.0 | 0.00 | 0.00 | 0.00 | 73 | 1024.7 |
| 20260508224555 | 69 | 23 | 0.0 | 1.0 | 0.00 | 0.00 | 0.00 | 71 | 1024.8 |
| 20260508224052 | 69 | 188 | 0.0 | 0.0 | 0.00 | 0.00 | 0.00 | 71 | 1024.6 |
| 20260508223550 | 69 | 12 | 1.0 | 2.0 | 0.00 | 0.00 | 0.00 | 69 | 1024.4 |
| 20260508223047 | 69 | 0 | 0.0 | 0.0 | 0.00 | 0.00 | 0.00 | 68 | 1024.6 |
| 20260508222544 | 70 | 40 | 0.0 | 2.0 | 0.00 | 0.00 | 0.00 | 68 | 1024.6 |
| 20260508222041 | 70 | 99 | 0.0 | 0.0 | 0.00 | 0.00 | 0.00 | 66 | 1024.5 |
| 20260508221537 | 70 | 15 | 1.0 | 1.0 | 0.00 | 0.00 | 0.00 | 62 | 1024.3 |
| 20260508221033 | 70 | 0 | 0.0 | 0.0 | 0.00 | 0.00 | 0.00 | 63 | 1024.3 |
| 20260508220530 | 71 | 29 | 0.0 | 0.0 | 0.00 | 0.00 | 0.00 | 63 | 1024.6 |
| 20260508220026 | 71 | 151 | 1.0 | 2.0 | 0.00 | 0.00 | 0.00 | 55 | 1024.5 |
| 20260508215524 | 70 | 148 | 2.0 | 4.0 | 0.00 | 0.00 | 0.00 | 58 | 1024.3 |
| 20260508215020 | 70 | 152 | 3.0 | 4.0 | 0.00 | 0.00 | 0.00 | 57 | 1024.2 |
| 20260508214518 | 71 | 135 | 3.0 | 3.0 | 0.00 | 0.00 | 0.00 | 55 | 1024.4 |
| 20260508214014 | 71 | 162 | 1.0 | 2.0 | 0.00 | 0.00 | 0.00 | 54 | 1024.6 |
| 20260508213512 | 71 | 162 | 2.0 | 3.0 | 0.00 | 0.00 | 0.00 | 53 | 1024.7 |
| 20260508213007 | 71 | 190 | 3.0 | 3.0 | 0.00 | 0.00 | 0.00 | 53 | 1024.6 |
| 20260508212504 | 71 | 106 | 1.0 | 3.0 | 0.00 | 0.00 | 0.00 | 52 | 1024.6 |
| 20260508212000 | 71 | 120 | 1.0 | 3.0 | 0.00 | 0.00 | 0.00 | 54 | 1024.4 |
| 20260508211455 | 71 | 188 | 2.0 | 4.0 | 0.00 | 0.00 | 0.00 | 58 | 1024.7 |
| 20260508210952 | 71 | 124 | 3.0 | 3.0 | 0.00 | 0.00 | 0.00 | 53 | 1024.9 |
| 20260508210449 | 71 | 225 | 0.0 | 2.0 | 0.00 | 0.00 | 0.00 | 53 | 1024.4 |
| 20260508205945 | 71 | 180 | 3.0 | 4.0 | 0.00 | 0.00 | 0.00 | 53 | 1024.5 |
| 20260508205443 | 71 | 172 | 3.0 | 5.0 | 0.00 | 0.00 | 0.00 | 50 | 1024.6 |
| 20260508204939 | 72 | 324 | 2.0 | 3.0 | 0.00 | 0.00 | 0.00 | 52 | 1024.4 |
| 20260508204437 | 72 | 180 | 2.0 | 3.0 | 0.00 | 0.00 | 0.00 | 53 | 1024.4 |
| 20260508203931 | 72 | 187 | 2.0 | 4.0 | 0.00 | 0.00 | 0.00 | 50 | 1024.6 |
| 20260508203428 | 72 | 166 | 2.0 | 4.0 | 0.00 | 0.00 | 0.00 | 54 | 1024.7 |
| 20260508202924 | 72 | 117 | 2.0 | 4.0 | 0.00 | 0.00 | 0.00 | 51 | 1024.6 |
| 20260508202421 | 72 | 180 | 0.0 | 4.0 | 0.00 | 0.00 | 0.00 | 52 | 1024.9 |
| 20260508201918 | 72 | 139 | 2.0 | 4.0 | 0.00 | 0.00 | 0.00 | 52 | 1025.0 |
| 20260508201415 | 72 | 140 | 0.0 | 2.0 | 0.00 | 0.00 | 0.00 | 48 | 1025.1 |
| 20260508200912 | 72 | 192 | 2.0 | 4.0 | 0.00 | 0.00 | 0.00 | 52 | 1025.4 |
| 20260508200409 | 72 | 144 | 0.0 | 2.0 | 0.00 | 0.00 | 0.00 | 47 | 1025.4 |
| 20260508195904 | 72 | 193 | 5.0 | 5.0 | 0.00 | 0.00 | 0.00 | 47 | 1025.2 |
| 20260508195401 | 72 | 103 | 1.0 | 3.0 | 0.00 | 0.00 | 0.00 | 50 | 1025.0 |
| 20260508194857 | 73 | 159 | 2.0 | 3.0 | 0.00 | 0.00 | 0.00 | 49 | 1025.3 |
| 20260508194354 | 73 | 15 | 2.0 | 2.0 | 0.00 | 0.00 | 0.00 | 47 | 1025.5 |
| 20260508193851 | 73 | 198 | 4.0 | 5.0 | 0.00 | 0.00 | 0.00 | 47 | 1025.3 |
| 20260508193348 | 73 | 262 | 1.0 | 4.0 | 0.00 | 0.00 | 0.00 | 49 | 1025.1 |
| 20260508192844 | 73 | 180 | 3.0 | 5.0 | 0.00 | 0.00 | 0.00 | 52 | 1025.4 |
| 20260508192341 | 72 | 78 | 2.0 | 4.0 | 0.00 | 0.00 | 0.00 | 51 | 1025.5 |
| 20260508191838 | 71 | 151 | 1.0 | 7.0 | 0.00 | 0.00 | 0.00 | 53 | 1025.8 |
| 20260508191336 | 72 | 162 | 3.0 | 7.0 | 0.00 | 0.00 | 0.00 | 53 | 1025.7 |
| 20260508190833 | 72 | 251 | 2.0 | 5.0 | 0.00 | 0.00 | 0.00 | 49 | 1025.9 |
| 20260508190329 | 72 | 119 | 2.0 | 4.0 | 0.00 | 0.00 | 0.00 | 54 | 1025.9 |
| 20260508185826 | 72 | 215 | 1.0 | 5.0 | 0.00 | 0.00 | 0.00 | 50 | 1025.7 |
| 20260508185323 | 71 | 180 | 2.0 | 4.0 | 0.00 | 0.00 | 0.00 | 50 | 1026.0 |
| 20260508184820 | 72 | 146 | 2.0 | 5.0 | 0.00 | 0.00 | 0.00 | 51 | 1026.1 |
| 20260508184317 | 71 | 259 | 0.0 | 4.0 | 0.00 | 0.00 | 0.00 | 48 | 1026.2 |
| 20260508183814 | 71 | 287 | 2.0 | 6.0 | 0.00 | 0.00 | 0.00 | 55 | 1026.1 |
| 20260508183311 | 72 | 138 | 3.0 | 7.0 | 0.00 | 0.00 | 0.00 | 52 | 1026.4 |
| 20260508182806 | 72 | 190 | 4.0 | 4.0 | 0.00 | 0.00 | 0.00 | 54 | 1026.7 |
| 20260508182306 | 70 | 124 | 4.0 | 9.0 | 0.00 | 0.00 | 0.00 | 52 | 1026.5 |
| 20260508181759 | 71 | 135 | 7.0 | 7.0 | 0.00 | 0.00 | 0.00 | 51 | 1026.5 |
| 20260508181256 | 70 | 134 | 5.0 | 5.0 | 0.00 | 0.00 | 0.00 | 52 | 1026.8 |
| 20260508180754 | 70 | 127 | 6.0 | 10.0 | 0.00 | 0.00 | 0.00 | 53 | 1026.5 |
| 20260508180250 | 71 | 151 | 4.0 | 6.0 | 0.00 | 0.00 | 0.00 | 53 | 1026.5 |
| 20260508175746 | 71 | 90 | 3.0 | 4.0 | 0.00 | 0.00 | 0.00 | 49 | 1026.6 |
| 20260508175243 | 70 | 127 | 4.0 | 6.0 | 0.00 | 0.00 | 0.00 | 51 | 1026.8 |
| 20260508174741 | 70 | 237 | 2.0 | 11.0 | 0.00 | 0.00 | 0.00 | 54 | 1027.1 |
| 20260508174238 | 71 | 135 | 3.0 | 5.0 | 0.00 | 0.00 | 0.00 | 52 | 1027.1 |
| 20260508173735 | 71 | 205 | 3.0 | 6.0 | 0.00 | 0.00 | 0.00 | 56 | 1026.9 |
| 20260508173231 | 71 | 99 | 0.0 | 3.0 | 0.00 | 0.00 | 0.00 | 53 | 1027.0 |
| 20260508172727 | 70 | 126 | 1.0 | 4.0 | 0.00 | 0.00 | 0.00 | 50 | 1027.3 |
| 20260508172224 | 70 | 208 | 3.0 | 7.0 | 0.00 | 0.00 | 0.00 | 53 | 1026.7 |
| 20260508171721 | 70 | 117 | 2.0 | 6.0 | 0.00 | 0.00 | 0.00 | 55 | 1027.2 |
| 20260508171217 | 70 | 165 | 3.0 | 7.0 | 0.00 | 0.00 | 0.00 | 55 | 1027.2 |
| 20260508170714 | 70 | 194 | 5.0 | 7.0 | 0.00 | 0.00 | 0.00 | 57 | 1027.3 |
| 20260508170212 | 70 | 251 | 3.0 | 6.0 | 0.00 | 0.00 | 0.00 | 57 | 1027.5 |
| 20260508165709 | 69 | 186 | 1.0 | 8.0 | 0.00 | 0.00 | 0.00 | 58 | 1027.8 |
| 20260508165206 | 70 | 186 | 5.0 | 9.0 | 0.00 | 0.00 | 0.00 | 60 | 1027.7 |
| 20260508164702 | 69 | 189 | 5.0 | 10.0 | 0.00 | 0.00 | 0.00 | 59 | 1027.7 |
| 20260508164159 | 69 | 277 | 1.0 | 7.0 | 0.00 | 0.00 | 0.00 | 60 | 1027.8 |
| 20260508163657 | 68 | 124 | 4.0 | 7.0 | 0.00 | 0.00 | 0.00 | 58 | 1028.0 |
| 20260508163154 | 69 | 185 | 3.0 | 8.0 | 0.00 | 0.00 | 0.00 | 59 | 1028.1 |
| 20260508162649 | 69 | 188 | 0.0 | 9.0 | 0.00 | 0.00 | 0.00 | 62 | 1028.2 |
| 20260508162147 | 69 | 203 | 1.0 | 6.0 | 0.00 | 0.00 | 0.00 | 61 | 1028.1 |
| 20260508161644 | 69 | 196 | 6.0 | 6.0 | 0.00 | 0.00 | 0.00 | 58 | 1028.1 |
| 20260508161142 | 68 | 116 | 3.0 | 4.0 | 0.00 | 0.00 | 0.00 | 59 | 1028.2 |
| 20260508160640 | 68 | 139 | 2.0 | 8.0 | 0.00 | 0.00 | 0.00 | 59 | 1028.2 |
| 20260508160137 | 67 | 196 | 9.0 | 9.0 | 0.00 | 0.00 | 0.00 | 61 | 1028.3 |
| 20260508155634 | 67 | 59 | 2.0 | 5.0 | 0.00 | 0.00 | 0.00 | 58 | 1028.6 |
| 20260508155131 | 67 | 90 | 0.0 | 5.0 | 0.00 | 0.00 | 0.00 | 61 | 1028.5 |
| 20260508154628 | 67 | 270 | 0.0 | 7.0 | 0.00 | 0.00 | 0.00 | 59 | 1028.7 |
| 20260508154124 | 67 | 157 | 3.0 | 9.0 | 0.00 | 0.00 | 0.00 | 61 | 1028.7 |
| 20260508153621 | 67 | 180 | 3.0 | 7.0 | 0.00 | 0.00 | 0.00 | 62 | 1028.6 |
| 20260508153118 | 67 | 154 | 4.0 | 10.0 | 0.00 | 0.00 | 0.00 | 62 | 1028.8 |
| 20260508152615 | 66 | 32 | 3.0 | 8.0 | 0.00 | 0.00 | 0.00 | 59 | 1028.7 |
| 20260508152110 | 66 | 180 | 5.0 | 9.0 | 0.00 | 0.00 | 0.00 | 60 | 1028.9 |
| 20260508151607 | 66 | 129 | 7.0 | 9.0 | 0.00 | 0.00 | 0.00 | 62 | 1028.7 |
| 20260508151104 | 66 | 174 | 4.0 | 8.0 | 0.00 | 0.00 | 0.00 | 62 | 1028.6 |
| 20260508150601 | 66 | 108 | 4.0 | 7.0 | 0.00 | 0.00 | 0.00 | 63 | 1028.6 |
| 20260508150057 | 66 | 107 | 3.0 | 8.0 | 0.00 | 0.00 | 0.00 | 68 | 1028.6 |
| 20260508145554 | 66 | 134 | 5.0 | 12.0 | 0.00 | 0.00 | 0.00 | 66 | 1028.4 |
| 20260508145050 | 65 | 135 | 6.0 | 10.0 | 0.00 | 0.00 | 0.00 | 66 | 1028.6 |
| 20260508144548 | 66 | 150 | 8.0 | 9.0 | 0.00 | 0.00 | 0.00 | 66 | 1028.6 |
| 20260508144045 | 64 | 135 | 7.0 | 9.0 | 0.00 | 0.00 | 0.00 | 65 | 1028.7 |
| 20260508143543 | 66 | 115 | 4.0 | 13.0 | 0.00 | 0.00 | 0.00 | 64 | 1028.6 |
| 20260508143039 | 66 | 209 | 1.0 | 7.0 | 0.00 | 0.00 | 0.00 | 68 | 1028.6 |
| 20260508142536 | 65 | 73 | 5.0 | 8.0 | 0.00 | 0.00 | 0.00 | 68 | 1028.6 |
| 20260508142032 | 65 | 96 | 3.0 | 9.0 | 0.00 | 0.00 | 0.00 | 66 | 1028.8 |
| 20260508141529 | 64 | 38 | 3.0 | 12.0 | 0.00 | 0.00 | 0.00 | 69 | 1028.7 |
| 20260508141027 | 64 | 95 | 7.0 | 9.0 | 0.00 | 0.00 | 0.00 | 69 | 1029.1 |
| 20260508140524 | 64 | 101 | 5.0 | 8.0 | 0.00 | 0.00 | 0.00 | 72 | 1029.0 |
| 20260508140020 | 64 | 75 | 4.0 | 8.0 | 0.00 | 0.00 | 0.00 | 72 | 1028.7 |
| 20260508135516 | 63 | 70 | 2.0 | 10.0 | 0.00 | 0.00 | 0.00 | 71 | 1028.8 |
| 20260508135012 | 64 | 81 | 6.0 | 8.0 | 0.00 | 0.00 | 0.00 | 72 | 1028.6 |
| 20260508134509 | 64 | 135 | 3.0 | 10.0 | 0.00 | 0.00 | 0.00 | 74 | 1028.7 |
| 20260508134006 | 63 | 90 | 3.0 | 11.0 | 0.00 | 0.00 | 0.00 | 77 | 1028.7 |
| 20260508133503 | 63 | 109 | 2.0 | 5.0 | 0.00 | 0.00 | 0.00 | 82 | 1028.6 |
| 20260508133000 | 63 | 77 | 4.0 | 6.0 | 0.00 | 0.00 | 0.00 | 83 | 1028.7 |
| 20260508132458 | 62 | 41 | 0.0 | 5.0 | 0.00 | 0.00 | 0.00 | 83 | 1028.7 |
| 20260508131954 | 62 | 104 | 5.0 | 7.0 | 0.00 | 0.00 | 0.00 | 83 | 1028.6 |
| 20260508131449 | 63 | 150 | 6.0 | 6.0 | 0.00 | 0.00 | 0.00 | 84 | 1028.5 |
| 20260508130946 | 62 | 101 | 3.0 | 10.0 | 0.00 | 0.00 | 0.00 | 83 | 1028.5 |
| 20260508130444 | 62 | 112 | 4.0 | 9.0 | 0.00 | 0.00 | 0.00 | 85 | 1028.2 |
| 20260508125939 | 62 | 77 | 3.0 | 6.0 | 0.00 | 0.00 | 0.00 | 86 | 1028.5 |
| 20260508125435 | 62 | 96 | 3.0 | 9.0 | 0.00 | 0.00 | 0.00 | 90 | 1028.4 |
| 20260508124934 | 61 | 120 | 4.0 | 8.0 | 0.00 | 0.00 | 0.00 | 95 | 1028.2 |
| 20260508124431 | 60 | 90 | 3.0 | 7.0 | 0.00 | 0.00 | 0.00 | 98 | 1028.3 |
| 20260508123928 | 59 | 116 | 3.0 | 10.0 | 0.00 | 0.00 | 0.00 | 99 | 1028.0 |
| 20260508123427 | 58 | 92 | 5.0 | 8.0 | 0.00 | 0.00 | 0.00 | 99 | 1027.8 |
| 20260508122923 | 59 | 98 | 2.0 | 4.0 | 0.00 | 0.00 | 0.00 | 99 | 1027.9 |
| 20260508122420 | 58 | 87 | 3.0 | 5.0 | 0.00 | 0.00 | 0.00 | 99 | 1028.1 |
| 20260508121917 | 58 | 90 | 2.0 | 5.0 | 0.00 | 0.00 | 0.00 | 99 | 1028.2 |
| 20260508121415 | 57 | 81 | 5.0 | 7.0 | 0.00 | 0.00 | 0.00 | 99 | 1027.7 |
| 20260508120913 | 57 | 110 | 3.0 | 5.0 | 0.00 | 0.00 | 0.00 | 99 | 1027.5 |
| 20260508120410 | 57 | 90 | 4.0 | 5.0 | 0.00 | 0.00 | 0.00 | 99 | 1028.0 |
| 20260508115908 | 56 | 76 | 3.0 | 5.0 | 0.00 | 0.00 | 0.00 | 99 | 1027.7 |
| 20260508115406 | 56 | 97 | 3.0 | 4.0 | 0.00 | 0.00 | 0.00 | 99 | 1027.8 |
| 20260508114901 | 56 | 104 | 3.0 | 3.0 | 0.00 | 0.00 | 0.00 | 99 | 1027.5 |
| 20260508114359 | 55 | 41 | 0.0 | 2.0 | 0.00 | 0.00 | 0.00 | 99 | 1027.7 |
| 20260508113855 | 54 | 54 | 1.0 | 2.0 | 0.00 | 0.00 | 0.00 | 99 | 1027.4 |
| 20260508113353 | 54 | 63 | 1.0 | 2.0 | 0.00 | 0.00 | 0.00 | 99 | 1027.4 |
| 20260508112850 | 54 | 57 | 0.0 | 2.0 | 0.00 | 0.00 | 0.00 | 99 | 1027.1 |
| 20260508112347 | 54 | 78 | 0.0 | 3.0 | 0.00 | 0.00 | 0.00 | 99 | 1027.1 |
| 20260508111843 | 53 | 55 | 3.0 | 3.0 | 0.00 | 0.00 | 0.00 | 99 | 1026.9 |
| 20260508111340 | 53 | 20 | 1.0 | 3.0 | 0.00 | 0.00 | 0.00 | 99 | 1026.6 |
| 20260508110838 | 52 | 26 | 2.0 | 2.0 | 0.00 | 0.00 | 0.00 | 99 | 1026.8 |
| 20260508110335 | 52 | 52 | 2.0 | 3.0 | 0.00 | 0.00 | 0.00 | 99 | 1026.6 |
| 20260508105835 | 52 | 66 | 2.0 | 2.0 | 0.00 | 0.00 | 0.00 | 99 | 1026.5 |
| 20260508105332 | 52 | 60 | 2.0 | 3.0 | 0.00 | 0.00 | 0.00 | 99 | 1026.5 |
| 20260508104829 | 52 | 75 | 2.0 | 2.0 | 0.00 | 0.00 | 0.00 | 99 | 1026.6 |
| 20260508104325 | 53 | 33 | 2.0 | 3.0 | 0.00 | 0.00 | 0.00 | 99 | 1026.4 |
| 20260508103823 | 53 | 40 | 2.0 | 3.0 | 0.00 | 0.00 | 0.00 | 99 | 1026.3 |
| 20260508103320 | 53 | 77 | 1.0 | 3.0 | 0.00 | 0.00 | 0.00 | 99 | 1026.3 |
| 20260508102817 | 53 | 71 | 1.0 | 2.0 | 0.00 | 0.00 | 0.00 | 99 | 1026.3 |
| 20260508102315 | 53 | 97 | 1.0 | 1.0 | 0.00 | 0.00 | 0.00 | 99 | 1026.1 |
| 20260508101812 | 53 | 4 | 2.0 | 3.0 | 0.00 | 0.00 | 0.00 | 99 | 1026.0 |
| 20260508101310 | 53 | 24 | 2.0 | 3.0 | 0.00 | 0.00 | 0.00 | 99 | 1025.9 |
| 20260508100807 | 54 | 30 | 2.0 | 3.0 | 0.00 | 0.00 | 0.00 | 99 | 1025.7 |
| 20260508100306 | 53 | 19 | 2.0 | 2.0 | 0.00 | 0.00 | 0.00 | 99 | 1025.6 |
| 20260508095801 | 53 | 9 | 2.0 | 3.0 | 0.00 | 0.00 | 0.00 | 99 | 1025.7 |
| 20260508095259 | 53 | 10 | 0.0 | 2.0 | 0.00 | 0.00 | 0.00 | 99 | 1025.5 |
| 20260508094755 | 53 | 49 | 2.0 | 3.0 | 0.00 | 0.00 | 0.00 | 99 | 1025.4 |
| 20260508094252 | 53 | 74 | 0.0 | 2.0 | 0.00 | 0.00 | 0.00 | 99 | 1025.5 |
| 20260508093749 | 53 | 48 | 2.0 | 3.0 | 0.00 | 0.00 | 0.00 | 99 | 1025.7 |
| 20260508093247 | 53 | 66 | 1.0 | 3.0 | 0.00 | 0.00 | 0.00 | 99 | 1025.4 |
| 20260508092743 | 54 | 40 | 3.0 | 3.0 | 0.00 | 0.00 | 0.00 | 99 | 1025.5 |
| 20260508092242 | 54 | 49 | 2.0 | 2.0 | 0.00 | 0.00 | 0.00 | 99 | 1025.5 |
| 20260508091740 | 54 | 48 | 2.0 | 2.0 | 0.00 | 0.00 | 0.00 | 99 | 1025.5 |
| 20260508091236 | 55 | 48 | 2.0 | 2.0 | 0.00 | 0.00 | 0.00 | 99 | 1025.2 |
| 20260508090734 | 54 | 90 | 0.0 | 2.0 | 0.00 | 0.00 | 0.00 | 99 | 1025.1 |
| 20260508090232 | 54 | 51 | 0.0 | 3.0 | 0.00 | 0.00 | 0.00 | 99 | 1025.2 |
| 20260508085727 | 54 | 38 | 2.0 | 2.0 | 0.00 | 0.00 | 0.00 | 99 | 1024.9 |
| 20260508085225 | 54 | 26 | 1.0 | 3.0 | 0.00 | 0.00 | 0.00 | 99 | 1025.3 |
| 20260508084720 | 54 | 57 | 2.0 | 2.0 | 0.00 | 0.00 | 0.00 | 99 | 1025.1 |
| 20260508084218 | 54 | 26 | 2.0 | 2.0 | 0.00 | 0.00 | 0.00 | 99 | 1025.1 |
| 20260508083715 | 54 | 53 | 2.0 | 2.0 | 0.00 | 0.00 | 0.00 | 99 | 1025.2 |
| 20260508083213 | 54 | 42 | 3.0 | 4.0 | 0.00 | 0.00 | 0.00 | 99 | 1025.2 |
| 20260508082708 | 54 | 52 | 2.0 | 3.0 | 0.00 | 0.00 | 0.00 | 99 | 1025.3 |
| 20260508082206 | 54 | 53 | 0.0 | 3.0 | 0.00 | 0.00 | 0.00 | 99 | 1025.1 |
| 20260508081703 | 54 | 32 | 1.0 | 3.0 | 0.00 | 0.00 | 0.00 | 99 | 1024.9 |
| 20260508081159 | 55 | 38 | 2.0 | 3.0 | 0.00 | 0.00 | 0.00 | 99 | 1025.2 |
| 20260508080657 | 55 | 21 | 2.0 | 2.0 | 0.00 | 0.00 | 0.00 | 99 | 1024.9 |
| 20260508080155 | 55 | 24 | 2.0 | 2.0 | 0.00 | 0.00 | 0.00 | 99 | 1024.7 |
| 20260508075651 | 54 | 36 | 2.0 | 3.0 | 0.00 | 0.00 | 0.00 | 99 | 1024.8 |
| 20260508075148 | 55 | 69 | 1.0 | 2.0 | 0.00 | 0.00 | 0.00 | 99 | 1025.0 |
| 20260508074646 | 55 | 30 | 2.0 | 3.0 | 0.00 | 0.00 | 0.00 | 99 | 1025.0 |
| 20260508074143 | 55 | 53 | 0.0 | 2.0 | 0.00 | 0.00 | 0.00 | 99 | 1024.9 |
| 20260508073639 | 55 | 57 | 2.0 | 2.0 | 0.00 | 0.00 | 0.00 | 99 | 1025.0 |
| 20260508073137 | 55 | 59 | 0.0 | 2.0 | 0.00 | 0.00 | 0.00 | 99 | 1024.9 |
| 20260508072633 | 55 | 40 | 2.0 | 2.0 | 0.00 | 0.00 | 0.00 | 99 | 1024.9 |
| 20260508072130 | 55 | 29 | 0.0 | 2.0 | 0.00 | 0.00 | 0.00 | 99 | 1025.1 |
| 20260508071628 | 56 | 105 | 1.0 | 3.0 | 0.00 | 0.00 | 0.00 | 98 | 1024.8 |
| 20260508071126 | 56 | 48 | 2.0 | 2.0 | 0.00 | 0.00 | 0.00 | 98 | 1024.9 |
| 20260508070623 | 56 | 33 | 2.0 | 2.0 | 0.00 | 0.00 | 0.00 | 98 | 1024.9 |
| 20260508070122 | 56 | 41 | 0.0 | 2.0 | 0.00 | 0.00 | 0.00 | 97 | 1025.0 |
| 20260508065618 | 57 | 66 | 0.0 | 2.0 | 0.00 | 0.00 | 0.00 | 97 | 1024.8 |
| 20260508065116 | 57 | 15 | 0.0 | 2.0 | 0.00 | 0.00 | 0.00 | 97 | 1024.6 |
| 20260508064614 | 57 | 28 | 2.0 | 3.0 | 0.00 | 0.00 | 0.00 | 97 | 1024.6 |
| 20260508064112 | 57 | 35 | 1.0 | 2.0 | 0.00 | 0.00 | 0.00 | 96 | 1024.5 |
| 20260508063609 | 57 | 20 | 0.0 | 2.0 | 0.00 | 0.00 | 0.00 | 96 | 1024.7 |
| 20260508063107 | 57 | 48 | 2.0 | 2.0 | 0.00 | 0.00 | 0.00 | 96 | 1024.6 |
| 20260508062604 | 58 | 17 | 2.0 | 2.0 | 0.00 | 0.00 | 0.00 | 95 | 1024.6 |
| 20260508062100 | 58 | 7 | 1.0 | 2.0 | 0.00 | 0.00 | 0.00 | 95 | 1024.6 |
| 20260508061558 | 58 | 352 | 0.0 | 2.0 | 0.00 | 0.00 | 0.00 | 95 | 1024.3 |
| 20260508061055 | 58 | 354 | 1.0 | 2.0 | 0.00 | 0.00 | 0.00 | 94 | 1024.4 |
| 20260508060552 | 58 | 352 | 0.0 | 1.0 | 0.00 | 0.00 | 0.00 | 94 | 1024.5 |
| 20260508060049 | 59 | 0 | 0.0 | 2.0 | 0.00 | 0.00 | 0.00 | 93 | 1024.6 |
| 20260508055544 | 59 | 0 | 0.0 | 1.0 | 0.00 | 0.00 | 0.00 | 93 | 1024.5 |
| 20260508055042 | 59 | 57 | 2.0 | 2.0 | 0.00 | 0.00 | 0.00 | 92 | 1024.7 |
| 20260508054538 | 59 | 32 | 2.0 | 3.0 | 0.00 | 0.00 | 0.00 | 92 | 1024.6 |
| 20260508054035 | 59 | 350 | 2.0 | 4.0 | 0.00 | 0.00 | 0.00 | 92 | 1024.4 |
| 20260508053532 | 59 | 24 | 2.0 | 2.0 | 0.00 | 0.00 | 0.00 | 91 | 1024.6 |
| 20260508053031 | 59 | 40 | 2.0 | 3.0 | 0.00 | 0.00 | 0.00 | 91 | 1024.6 |
| 20260508052527 | 59 | 23 | 2.0 | 3.0 | 0.00 | 0.00 | 0.00 | 91 | 1024.8 |
| 20260508052024 | 59 | 7 | 0.0 | 1.0 | 0.00 | 0.00 | 0.00 | 90 | 1024.9 |
| 20260508051520 | 59 | 18 | 0.0 | 1.0 | 0.00 | 0.00 | 0.00 | 90 | 1024.6 |
| 20260508051015 | 59 | 23 | 2.0 | 2.0 | 0.00 | 0.00 | 0.00 | 90 | 1024.8 |
| 20260508050512 | 59 | 23 | 3.0 | 3.0 | 0.00 | 0.00 | 0.00 | 89 | 1024.5 |
| 20260508050010 | 59 | 8 | 2.0 | 2.0 | 0.00 | 0.00 | 0.00 | 89 | 1024.5 |
| 20260508045506 | 59 | 49 | 2.0 | 3.0 | 0.00 | 0.00 | 0.00 | 89 | 1024.4 |
| 20260508045004 | 59 | 6 | 3.0 | 3.0 | 0.00 | 0.00 | 0.00 | 88 | 1024.5 |
| 20260508044501 | 60 | 74 | 1.0 | 1.0 | 0.00 | 0.00 | 0.00 | 88 | 1024.4 |
| 20260508043956 | 60 | 32 | 0.0 | 4.0 | 0.00 | 0.00 | 0.00 | 88 | 1024.5 |
| 20260508043453 | 60 | 6 | 3.0 | 4.0 | 0.00 | 0.00 | 0.00 | 89 | 1024.4 |
| 20260508042949 | 60 | 357 | 3.0 | 4.0 | 0.00 | 0.00 | 0.00 | 89 | 1024.4 |
| 20260508042448 | 60 | 0 | 3.0 | 6.0 | 0.00 | 0.00 | 0.00 | 90 | 1024.4 |
| 20260508041944 | 60 | 5 | 1.0 | 2.0 | 0.00 | 0.00 | 0.00 | 90 | 1024.2 |
| 20260508041441 | 61 | 30 | 2.0 | 3.0 | 0.00 | 0.00 | 0.00 | 89 | 1024.2 |
| 20260508040937 | 61 | 35 | 1.0 | 2.0 | 0.00 | 0.00 | 0.00 | 88 | 1024.1 |
| 20260508040435 | 62 | 32 | 2.0 | 3.0 | 0.00 | 0.00 | 0.00 | 87 | 1024.2 |
| 20260508035932 | 62 | 4 | 0.0 | 3.0 | 0.00 | 0.00 | 0.00 | 85 | 1024.1 |
| 20260508035429 | 63 | 85 | 2.0 | 3.0 | 0.00 | 0.00 | 0.00 | 84 | 1024.1 |
| 20260508034926 | 63 | 59 | 0.0 | 5.0 | 0.00 | 0.00 | 0.00 | 83 | 1023.9 |
| 20260508034423 | 63 | 28 | 2.0 | 4.0 | 0.00 | 0.00 | 0.00 | 83 | 1024.0 |
| 20260508033920 | 63 | 40 | 0.0 | 2.0 | 0.00 | 0.00 | 0.00 | 83 | 1024.1 |
| 20260508033418 | 64 | 45 | 2.0 | 2.0 | 0.00 | 0.00 | 0.00 | 83 | 1023.8 |
| 20260508032915 | 64 | 327 | 2.0 | 3.0 | 0.00 | 0.00 | 0.00 | 82 | 1024.0 |
| 20260508032412 | 65 | 78 | 0.0 | 3.0 | 0.00 | 0.00 | 0.00 | 81 | 1023.9 |
| 20260508031909 | 65 | 54 | 0.0 | 3.0 | 0.00 | 0.00 | 0.00 | 81 | 1023.8 |
| 20260508031407 | 65 | 340 | 0.0 | 3.0 | 0.00 | 0.00 | 0.00 | 80 | 1024.0 |
| 20260508030902 | 65 | 19 | 2.0 | 5.0 | 0.00 | 0.00 | 0.00 | 79 | 1023.9 |
| 20260508030359 | 66 | 41 | 0.0 | 4.0 | 0.00 | 0.00 | 0.00 | 79 | 1023.7 |
| 20260508025857 | 66 | 325 | 5.0 | 5.0 | 0.00 | 0.00 | 0.00 | 79 | 1023.6 |
| 20260508025353 | 66 | 43 | 5.0 | 5.0 | 0.00 | 0.00 | 0.00 | 79 | 1023.7 |
| 20260508024850 | 66 | 61 | 3.0 | 6.0 | 0.00 | 0.00 | 0.00 | 78 | 1023.5 |
| 20260508024347 | 66 | 65 | 7.0 | 7.0 | 0.00 | 0.00 | 0.00 | 78 | 1023.3 |
| 20260508023843 | 66 | 0 | 1.0 | 7.0 | 0.00 | 0.00 | 0.00 | 79 | 1023.3 |
| 20260508023340 | 66 | 90 | 2.0 | 4.0 | 0.00 | 0.00 | 0.00 | 80 | 1023.2 |
| 20260508022837 | 67 | 75 | 2.0 | 4.0 | 0.00 | 0.00 | 0.00 | 80 | 1023.1 |
| 20260508022332 | 67 | 61 | 0.0 | 9.0 | 0.00 | 0.00 | 0.00 | 79 | 1023.3 |
| 20260508021830 | 67 | 94 | 2.0 | 5.0 | 0.00 | 0.00 | 0.00 | 79 | 1023.0 |
| 20260508021326 | 67 | 134 | 5.0 | 5.0 | 0.00 | 0.00 | 0.00 | 80 | 1023.1 |
| 20260508020822 | 68 | 4 | 0.0 | 5.0 | 0.00 | 0.00 | 0.00 | 80 | 1022.8 |
| 20260508020320 | 68 | 104 | 6.0 | 7.0 | 0.00 | 0.00 | 0.00 | 81 | 1022.8 |
| 20260508015817 | 68 | 93 | 3.0 | 4.0 | 0.00 | 0.00 | 0.00 | 82 | 1022.4 |
| 20260508015314 | 68 | 72 | 5.0 | 18.0 | 0.00 | 0.00 | 0.00 | 82 | 1022.6 |
| 20260508014811 | 68 | 139 | 2.0 | 9.0 | 0.00 | 0.00 | 0.00 | 81 | 1022.4 |
| 20260508014308 | 69 | 0 | 0.0 | 5.0 | 0.00 | 0.00 | 0.00 | 81 | 1022.2 |
| 20260508013803 | 69 | 163 | 3.0 | 8.0 | 0.00 | 0.00 | 0.00 | 81 | 1022.0 |
| 20260508013300 | 69 | 216 | 2.0 | 7.0 | 0.00 | 0.00 | 0.00 | 81 | 1022.2 |
| 20260508012757 | 69 | 155 | 3.0 | 5.0 | 0.00 | 0.00 | 0.00 | 82 | 1022.1 |
| 20260508012255 | 69 | 13 | 4.0 | 9.0 | 0.00 | 0.00 | 0.00 | 82 | 1021.9 |
| 20260508011753 | 69 | 51 | 2.0 | 7.0 | 0.00 | 0.00 | 0.00 | 84 | 1021.5 |
| 20260508011250 | 69 | 18 | 2.0 | 3.0 | 0.00 | 0.00 | 0.00 | 82 | 1021.6 |
| 20260508010747 | 70 | 21 | 2.0 | 2.0 | 0.00 | 0.00 | 0.00 | 82 | 1021.3 |
| 20260508010245 | 70 | 249 | 0.0 | 3.0 | 0.00 | 0.00 | 0.00 | 81 | 1021.3 |
| 20260508005741 | 70 | 15 | 0.0 | 2.0 | 0.00 | 0.00 | 0.00 | 80 | 1021.5 |
| 20260508005238 | 70 | 32 | 3.0 | 4.0 | 0.00 | 0.00 | 0.00 | 80 | 1021.0 |
| 20260508004733 | 71 | 184 | 2.0 | 3.0 | 0.00 | 0.00 | 0.00 | 79 | 1021.1 |
| 20260508004230 | 71 | 246 | 1.0 | 6.0 | 0.00 | 0.00 | 0.00 | 80 | 1021.0 |
| 20260508003727 | 71 | 101 | 2.0 | 4.0 | 0.00 | 0.00 | 0.00 | 80 | 1020.7 |
| 20260508003224 | 71 | 270 | 0.0 | 4.0 | 0.00 | 0.00 | 0.00 | 80 | 1020.6 |
| 20260508002721 | 71 | 251 | 0.0 | 5.0 | 0.00 | 0.00 | 0.00 | 79 | 1020.6 |
| 20260508002218 | 72 | 101 | 3.0 | 3.0 | 0.00 | 0.00 | 0.00 | 78 | 1020.6 |
| 20260508001714 | 72 | 220 | 5.0 | 5.0 | 0.00 | 0.00 | 0.00 | 78 | 1020.6 |
| 20260508001209 | 72 | 223 | 4.0 | 5.0 | 0.00 | 0.00 | 0.00 | 78 | 1020.4 |
| 20260508000706 | 72 | 338 | 3.0 | 4.0 | 0.00 | 0.00 | 0.00 | 78 | 1020.2 |
| 20260508000204 | 72 | 188 | 0.0 | 4.0 | 0.00 | 0.00 | 0.00 | 77 | 1020.1 |
| 20260507235659 | 73 | 226 | 4.0 | 6.0 | 0.00 | 0.00 | 0.00 | 76 | 1020.1 |
| 20260507235157 | 73 | 79 | 3.0 | 6.0 | 0.00 | 0.00 | 0.00 | 77 | 1019.9 |
| 20260507234654 | 73 | 270 | 0.0 | 4.0 | 0.00 | 0.00 | 0.00 | 77 | 1019.9 |
| 20260507234150 | 73 | 359 | 7.0 | 7.0 | 0.00 | 0.00 | 0.00 | 76 | 1019.9 |
| 20260507233647 | 74 | 131 | 2.0 | 6.0 | 0.00 | 0.00 | 0.00 | 76 | 1019.7 |
| 20260507233145 | 74 | 311 | 3.0 | 6.0 | 0.00 | 0.00 | 0.00 | 76 | 1019.8 |
| 20260507232642 | 74 | 108 | 3.0 | 6.0 | 0.00 | 0.00 | 0.00 | 75 | 1019.6 |
| 20260507232139 | 74 | 162 | 4.0 | 4.0 | 0.00 | 0.00 | 0.00 | 75 | 1019.7 |
| 20260507231636 | 75 | 237 | 2.0 | 4.0 | 0.00 | 0.00 | 0.00 | 74 | 1019.5 |